Regional Weather Roundup
Issued by NWS Portland, ME

Current Version | Previous Version | Text Only | Print | Product List | Glossary On
Versions: 1 2 3 4 5 6 7 8 9 10 11 12 13 14 15 16 17 18 19 20 21 22 23 24 25 26 27 28 29 30 31 32 33 34 35 36 37 38 39 40 41 42 43 44 45 46 47 48 49 50
000
ASUS41 KGYX 161210
RWRGYX
WEATHER ROUNDUP FOR MAINE AND NEW HAMPSHIRE
NATIONAL WEATHER SERVICE GRAY ME
700 AM EST TUE JAN 16 2018

MEZ002-005-006-010-012-015-018-020-021-024-026-027-029-161300-
MAINE

CITY           SKY/WX    TMP DP  RH WIND       PRES   REMARKS
PORTLAND       MOCLDY    15   9  76 VRB6      30.53S
6HR MIN TEMP:  15; 6HR MAX TEMP:  16; 6HR PCP: TRACE;

SANFORD        CLOUDY    12   9  87 CALM      30.54R
BAR HARBOR     CLOUDY    14   8  77 N6        30.51R
WISCASSET      CLOUDY    15   9  76 VRB3      30.55R
6HR MIN TEMP:  14; 6HR MAX TEMP:  15;

FRYEBURG       MOCLDY    14   8  77 SE3       30.50R
6HR MIN TEMP:  14; 6HR MAX TEMP:  16;

LEWISTONAUBURN FLURRIES  13   7  77 N5        30.52R
AUGUSTA        CLOUDY    13   7  77 N3        30.51R
6HR MIN TEMP:  12; 6HR MAX TEMP:  13;

WATERVILLE     CLOUDY    12   7  80 N5        30.47R
BANGOR         CLOUDY    12   7  80 N8        30.51F
6HR MIN TEMP:  11; 6HR MAX TEMP:  13; 6HR PCP: TRACE;

GREENVILLE       N/A    N/A N/A N/A CALM      30.37S
                                      6HR PCP:  0.37;

MILLINOCKET    CLOUDY    10   6  84 NW3       30.50S
6HR MIN TEMP:   8; 6HR MAX TEMP:  10; 6HR PCP: TRACE;

HOULTON        LGT SNOW   7   3  84 N6        30.47S FOG
6HR MIN TEMP:   6; 6HR MAX TEMP:   7; 6HR PCP: TRACE;

PRESQUE ISLE   FLURRIES   2  -2  83 W5        30.52R
6HR MIN TEMP:   1; 6HR MAX TEMP:   2; 6HR PCP: TRACE;

FRENCHVILLE    CLOUDY    -7 -11  83 N6        30.46R
6HR MIN TEMP:  -9; 6HR MAX TEMP:  -4;

CARIBOU        CLOUDY     2  -4  76 NW5       30.49R
6HR MIN TEMP:   0; 6HR MAX TEMP:   2;

$$

NHZ002-005-008-009-011-012-014-161300-
NEW HAMPSHIRE

CITY           SKY/WX    TMP DP  RH WIND       PRES   REMARKS
PORTSMOUTH     MOCLDY    17  10  74 CALM      30.52R
ROCHESTER      MOCLDY    15  11  83 CALM      30.50S
6HR MIN TEMP:  14; 6HR MAX TEMP:  18;

NASHUA         MOCLDY    17  11  77 CALM      30.52R
MANCHESTER     CLOUDY    17   8  67 SE3       30.50R
6HR MIN TEMP:  17; 6HR MAX TEMP:  20;

CONCORD        CLOUDY    15   8  73 CALM      30.50F
6HR MIN TEMP:  13; 6HR MAX TEMP:  16;

PLYMOUTH       FLURRIES  10   7  89 CALM      30.49S
BERLIN         CLOUDY     5   1  83 CALM      30.40F
6HR MIN TEMP:   1; 6HR MAX TEMP:   6;

WHITEFIELD     FLURRIES   6   2  83 CALM      30.40S
6HR MIN TEMP:  -2; 6HR MAX TEMP:   6; 6HR PCP: TRACE;

JAFFREY        FLURRIES  17  10  74 CALM      30.42F
6HR MIN TEMP:  17; 6HR MAX TEMP:  18; 6HR PCP: TRACE;

KEENE          FLURRIES  17  11  77 CALM      30.48F
LEBANON        MOCLDY    16  10  77 CALM      30.46R
6HR MIN TEMP:  15; 6HR MAX TEMP:  16;

MT WASHINGTON  NOT AVBL
$$

VTZ005-007-008-161300-
VERMONT

CITY           SKY/WX    TMP DP  RH WIND       PRES   REMARKS
ST JOHNSBURY     N/A     10   8  92 MISG      30.43S
MONTPELIER     LGT SNOW  11   9  92 CALM      30.42S FOG
BURLINGTON     LGT SNOW  16  11  80 S6        30.43S
$$

MAZ007-012-024-CTZ003-RIZ002-NYZ038-NYZ072-161300-
SOUTHERN NEW ENGLAND AND NY

CITY           SKY/WX    TMP DP  RH WIND       PRES   REMARKS
BOSTON         CLOUDY    22  15  75 NE5       30.53S
WORCESTER      CLOUDY    17   7  64 CALM      30.44S
NANTUCKET      CLOUDY    31  30  96 N7        30.50R
PROVIDENCE     MOCLDY    22  13  68 NE5       30.52S
HARTFORD       MOCLDY    20   9  62 CALM      30.50S
ALBANY         CLOUDY    17  12  80 CALM      30.47R
NEW YORK CITY  CLOUDY    26  21  81 E6        30.51R
$$

ANZ081-ANZ082-ANZ150-NHZ014-MEZ023>029-161300-
COASTAL MARINE OBSERVATIONS

STATION/POSITION TIME  TEMP    WIND        PRES    WAVE
                       AIR SEA DIR/SP/G            HT/PER
                 (UTC) (F)     (DEG/KT/KT) (MB)    (FT/S)
MOUNT DESERT ROC 1200   21     310/ 11/ 13 1032.7R
MATINICUS ROCK   1100   19     360/ 10/ 12 1032.4R
ISLE OF SHOALS   1100   20      20/  8/  9 1033.1F
JEFFREYS LEDGE   1136      44                N/A     9/11
GEORGES BANK BUO 1050   43 53              1022.7   14/10
$$

.............KEY..............
   WCI - WIND CHILL
   TC  - TEMPERATURE IN CELSIUS
   VSB - VISIBILITY IN MILES
   HX  - HEAT INDEX
   FAIR- INDICATES FEW OR NO CLOUDS BELOW 12,000 FT, WITH NO
         SIGNIFICANT WEATHER AND/OR OBSTRUCTIONS TO VISIBILITY.






USA.gov is the U.S. government's official web portal to all federal, state and local government web resources and services.